CW4114 Weather Reports


time (UTC)temp
C
wind
direction
speed
KPH
gust
KPH
rain 1hr
cm
rain 24hr
cm
rain mn
cm
humidity
%
barometer
mb
20260901112137 18 2 0.0 3.2 0.00 0.05 0.00 98 1012.0
20260901111400 18 305 0.0 4.8 0.00 0.05 0.00 98 1011.9
20260901110903 18 306 0.0 4.8 0.00 0.05 0.00 98 1011.9
20260901110401 18 293 1.6 4.8 0.00 0.05 0.00 98 1011.9
20260901105859 18 305 0.0 1.6 0.00 0.05 0.00 98 1011.8
20260901105403 18 30 0.0 4.8 0.00 0.05 0.00 98 1011.7
20260901104900 18 343 0.0 4.8 0.00 0.05 0.00 98 1011.7
20260901104359 18 24 0.0 6.4 0.00 0.05 0.00 97 1011.6
20260901103900 18 319 0.0 6.4 0.00 0.05 0.00 97 1011.7
20260901103359 18 316 0.0 3.2 0.00 0.05 0.00 97 1011.8
20260901102402 18 312 0.0 8.0 0.00 0.05 0.00 97 1011.7
20260901101857 18 329 0.0 4.8 0.00 0.05 0.00 97 1011.8
20260901101357 18 21 0.0 4.8 0.00 0.05 0.00 97 1011.7
20260901100858 18 351 0.0 4.8 0.00 0.05 0.00 97 1011.6
20260901100356 18 344 0.0 3.2 0.00 0.05 0.00 97 1011.6
20260901095855 18 25 0.0 4.8 0.00 0.05 0.00 97 1011.6
20260901095625 18 58 0.0 6.4 0.00 0.05 0.00 97 1011.6
20260901095121 18 300 1.6 6.4 0.00 0.05 0.00 97 1011.6
20260901094357 18 347 0.0 8.0 0.00 0.05 0.00 97 1011.6
20260901094128 18 31 0.0 8.0 0.00 0.05 0.00 97 1011.6
20260901093355 18 1 3.2 8.0 0.00 0.05 0.00 97 1011.5
20260901092854 18 25 0.0 11.3 0.00 0.05 0.00 97 1011.3
20260901092355 18 298 1.6 11.3 0.00 0.05 0.00 97 1011.3
20260901091853 18 306 1.6 11.3 0.00 0.05 0.00 97 1011.4
20260901091352 18 327 3.2 11.3 0.00 0.05 0.00 97 1011.3
20260901090853 18 355 1.6 14.5 0.00 0.05 0.00 97 1011.3
20260901090352 19 278 1.6 14.5 0.00 0.05 0.00 97 1011.1
20260901085850 19 21 1.6 8.0 0.00 0.05 0.00 97 1011.0
20260901085351 19 15 0.0 6.4 0.00 0.05 0.00 97 1011.0
20260901084852 20 313 1.6 14.5 0.00 0.05 0.00 97 1010.9
20260901084351 20 295 1.6 14.5 0.00 0.05 0.00 97 1010.9
20260901083850 20 292 1.6 8.0 0.00 0.05 0.00 97 1010.9
20260901083350 20 336 1.6 9.7 0.00 0.05 0.00 97 1010.8
20260901082850 20 276 1.6 9.7 0.00 0.05 0.00 97 1010.7
20260901082349 20 350 1.6 9.7 0.00 0.05 0.00 97 1010.7
20260901082121 20 320 4.8 9.7 0.00 0.05 0.00 97 1010.7
20260901080847 20 309 3.2 11.3 0.00 0.05 0.00 97 1010.7
20260901080346 20 8 1.6 6.4 0.00 0.05 0.00 97 1010.7
20260901075845 20 309 1.6 6.4 0.00 0.05 0.00 97 1010.6
20260901075346 20 312 0.0 4.8 0.00 0.05 0.00 97 1010.6
20260901074845 20 316 1.6 4.8 0.00 0.05 0.00 97 1010.5
20260901074345 20 324 1.6 4.8 0.00 0.05 0.00 97 1010.6
20260901073845 20 316 0.0 6.4 0.00 0.05 0.00 97 1010.5
20260901073345 20 310 1.6 6.4 0.00 0.05 0.00 97 1010.5
20260901072844 20 305 1.6 8.0 0.00 0.05 0.00 97 1010.4
20260901072342 20 305 3.2 8.0 0.00 0.05 0.00 97 1010.4
20260901072110 20 322 3.2 6.4 0.00 0.05 0.00 97 1010.3
20260901071340 20 288 3.2 8.0 0.00 0.05 0.00 97 1010.5
20260901070839 19 272 3.2 8.0 0.00 0.05 0.00 97 1010.4
20260901070559 18 296 4.8 6.4 0.00 0.05 0.00 96 1010.3
20260901065832 18 275 3.2 4.8 0.00 0.05 0.00 96 1010.3
20260901065332 18 281 0.0 1.6 0.00 0.05 0.00 96 1010.2
20260901064833 18 236 0.0 0.0 0.00 0.05 0.00 95 1010.1
20260901064332 18 28 0.0 0.0 0.00 0.05 0.00 95 1010.1
20260901063832 18 28 0.0 0.0 0.00 0.05 0.00 95 1010.2
20260901063332 18 28 0.0 0.0 0.00 0.05 0.00 95 1010.2
20260901062836 18 28 0.0 0.0 0.00 0.05 0.00 95 1010.1
20260901062604 18 28 0.0 0.0 0.00 0.05 0.00 95 1010.1
20260901061327 19 28 0.0 0.0 0.00 0.05 0.00 95 1010.2
20260901060826 19 28 0.0 0.0 0.00 0.05 0.00 95 1010.1
20260901060327 19 28 0.0 0.0 0.00 0.05 0.00 95 1010.0
20260901055826 19 28 0.0 1.6 0.00 0.05 0.00 95 1010.1
20260901055554 19 28 0.0 1.6 0.00 0.05 0.00 94 1010.2
20260901054827 19 30 0.0 1.6 0.00 0.05 0.00 94 1010.1
20260901054327 19 48 0.0 1.6 0.00 0.05 0.00 94 1010.1
20260901053827 19 48 1.6 1.6 0.00 0.05 0.00 94 1010.1
20260901053325 20 47 0.0 0.0 0.00 0.05 0.00 94 1010.3
20260901052826 20 47 0.0 0.0 0.00 0.05 0.00 94 1010.3
20260901052553 20 45 0.0 0.0 0.00 0.05 0.00 94 1010.3
20260901052054 20 45 0.0 0.0 0.00 0.05 0.00 94 1010.3
20260901051325 20 47 0.0 0.0 0.00 0.05 0.00 93 1010.4
20260901051054 20 47 0.0 1.6 0.00 0.05 0.00 93 1010.3
20260901050326 20 45 0.0 3.2 0.00 0.05 0.00 94 1010.3
20260901045821 20 45 1.6 3.2 0.00 0.05 0.00 94 1010.5
20260901045321 20 52 1.6 1.6 0.00 0.05 0.00 93 1010.5
20260901044822 20 52 0.0 1.6 0.00 0.05 0.00 93 1010.5
20260901044320 20 52 0.0 0.0 0.00 0.05 0.00 93 1010.5
20260901043819 20 52 0.0 1.6 0.00 0.05 0.00 93 1010.5
20260901043319 20 52 0.0 3.2 0.00 0.05 0.00 92 1010.4
20260901042820 21 55 0.0 3.2 0.00 0.05 0.00 93 1010.5
20260901042320 21 290 0.0 4.8 0.00 0.05 0.00 92 1010.4
20260901042047 21 31 0.0 4.8 0.00 0.05 0.00 92 1010.4
20260901041321 21 28 1.6 6.4 0.00 0.05 0.00 92 1010.5
20260901040819 22 357 0.0 9.7 0.00 0.05 0.00 94 1010.3
20260901040318 22 298 4.8 14.5 0.00 0.05 0.00 94 1010.4
20260901035819 22 268 4.8 14.5 0.00 0.05 0.05 94 1010.2
20260901035543 22 247 4.8 9.7 0.00 0.05 0.05 94 1010.1
20260901034818 22 268 4.8 9.7 0.00 0.05 0.05 94 1010.1
20260901033816 22 250 4.8 9.7 0.00 0.05 0.05 93 1010.0
20260901033317 22 268 6.4 9.7 0.00 0.05 0.05 93 1010.0
20260901032819 22 262 4.8 9.7 0.00 0.05 0.05 93 1010.0
20260901032318 22 251 4.8 9.7 0.00 0.05 0.05 92 1010.0
20260901031815 22 252 4.8 8.0 0.00 0.05 0.05 92 1010.0
20260901031316 22 228 4.8 11.3 0.00 0.05 0.05 92 1009.9
20260901030549 22 226 3.2 8.0 0.00 0.05 0.05 92 1009.9
20260901025816 22 216 4.8 8.0 0.00 0.05 0.05 92 1010.2
20260901025549 22 226 3.2 8.0 0.00 0.05 0.05 92 1010.2
20260901024814 22 210 3.2 9.7 0.00 0.05 0.05 91 1010.2
20260901024316 22 243 3.2 9.7 0.00 0.05 0.05 91 1010.2
20260901023812 22 206 4.8 9.7 0.00 0.05 0.05 91 1010.1
20260901023311 23 178 4.8 14.5 0.00 0.05 0.05 91 1010.2
20260901022810 23 212 6.4 14.5 0.00 0.05 0.05 91 1010.2
20260901022312 23 197 6.4 14.5 0.00 0.05 0.05 91 1010.0
20260901021811 23 210 6.4 14.5 0.00 0.05 0.05 91 1010.0
20260901021310 23 228 4.8 14.5 0.00 0.05 0.05 91 1010.0
20260901020811 23 189 6.4 11.3 0.00 0.05 0.05 91 1010.0
20260901020314 23 209 4.8 11.3 0.00 0.05 0.05 91 1010.1
20260901020036 23 212 3.2 9.7 0.00 0.05 0.05 91 1010.1
20260901015308 23 210 3.2 9.7 0.00 0.05 0.05 91 1010.1
20260901014809 23 227 3.2 9.7 0.00 0.05 0.05 91 1010.3
20260901014306 23 230 4.8 11.3 0.00 0.05 0.05 91 1010.3
20260901014032 23 209 6.4 16.1 0.00 0.05 0.05 90 1010.3
20260901013305 23 244 6.4 16.1 0.00 0.05 0.05 90 1010.2
20260901012806 23 261 6.4 16.1 0.00 0.05 0.05 90 1010.3
20260901012530 23 264 6.4 16.1 0.00 0.05 0.05 90 1010.1
20260901011808 23 230 4.8 16.1 0.00 0.05 0.05 90 1010.0
20260901011529 23 214 8.0 14.5 0.00 0.05 0.05 90 1010.0
20260901010805 23 197 6.4 14.5 0.00 0.05 0.05 90 1010.0
20260901010303 23 202 4.8 11.3 0.00 0.05 0.05 91 1010.0
20260901010036 23 245 4.8 11.3 0.00 0.05 0.05 91 1009.8
20260901004806 23 172 4.8 14.5 0.00 0.05 0.05 90 1009.8
20260901004304 23 186 4.8 14.5 0.00 0.05 0.05 90 1009.8
20260901004034 23 212 6.4 11.3 0.00 0.05 0.05 90 1009.8
20260901003302 23 220 6.4 11.3 0.00 0.05 0.05 90 1009.7
20260901002802 23 245 3.2 9.7 0.00 0.05 0.05 90 1009.7
20260901002305 23 193 3.2 11.3 0.00 0.05 0.05 90 1009.6
20260901001801 23 212 1.6 11.3 0.00 0.05 0.05 90 1009.7
20260901001300 23 159 4.8 9.7 0.00 0.05 0.05 89 1009.7
20260901000802 23 189 6.4 11.3 0.00 0.05 0.05 89 1009.6
20260901000300 23 196 1.6 14.5 0.00 0.05 0.05 89 1009.6
20260831235800 23 210 4.8 14.5 0.00 0.05 0.05 89 1009.7
20260831235255 23 176 3.2 11.3 0.00 0.05 0.05 88 1009.6
20260831234755 23 176 3.2 11.3 0.00 0.05 0.05 88 1009.7
20260831234254 23 175 3.2 8.0 0.00 0.05 0.05 88 1009.7
20260831233753 24 178 4.8 8.0 0.00 0.05 0.05 88 1009.7
20260831233251 24 172 3.2 14.5 0.00 0.05 0.05 88 1009.8
20260831232750 24 166 3.2 14.5 0.00 0.05 0.05 87 1009.9
20260831232248 24 192 4.8 9.7 0.00 0.05 0.05 88 1009.8
20260831231749 24 148 1.6 9.7 0.00 0.05 0.05 87 1009.7
20260831231249 24 176 4.8 9.7 0.00 0.05 0.05 88 1009.8
20260831230747 24 152 1.6 8.0 0.00 0.05 0.05 88 1009.7
20260831230511 24 149 3.2 8.0 0.00 0.05 0.05 88 1009.7
20260831225744 24 165 3.2 14.5 0.00 0.05 0.05 87 1009.8
20260831225508 24 162 4.8 14.5 0.00 0.05 0.05 87 1009.8
20260831224743 25 158 4.8 11.3 0.00 0.05 0.05 87 1009.9
20260831224242 24 142 6.4 14.5 0.00 0.05 0.05 88 1009.9
20260831223742 24 182 6.4 14.5 0.00 0.05 0.05 89 1009.9
20260831223246 24 181 3.2 11.3 0.00 0.05 0.05 91 1009.9
20260831223010 23 149 4.8 11.3 0.00 0.05 0.05 92 1009.8
20260831221740 23 106 1.6 4.8 0.00 0.05 0.05 90 1009.8
20260831221241 23 106 1.6 4.8 0.00 0.05 0.05 89 1009.9
20260831220741 23 78 1.6 4.8 0.00 0.05 0.05 88 1009.8
20260831220240 23 65 1.6 3.2 0.00 0.05 0.05 88 1009.9
20260831215739 23 54 0.0 3.2 0.00 0.05 0.05 88 1009.9
20260831215241 23 59 1.6 3.2 0.00 0.05 0.05 89 1010.0
20260831214737 23 93 0.0 3.2 0.00 0.05 0.05 91 1009.9
20260831214501 23 82 0.0 4.8 0.00 0.05 0.05 91 1009.9
20260831213735 22 79 1.6 4.8 0.00 0.05 0.05 90 1009.9
20260831213234 22 76 1.6 4.8 0.00 0.05 0.05 89 1010.1
20260831212736 22 68 1.6 4.8 0.00 0.05 0.05 90 1010.1
20260831212235 22 73 1.6 4.8 0.00 0.05 0.05 90 1010.1
20260831211736 22 71 0.0 1.6 0.00 0.05 0.05 91 1010.0
20260831211233 22 95 0.0 3.2 0.00 0.05 0.05 92 1010.0
20260831210736 22 97 0.0 3.2 0.00 0.05 0.05 93 1010.1
20260831210233 21 103 0.0 4.8 0.00 0.05 0.05 94 1010.2
20260831205733 21 99 1.6 9.7 0.00 0.05 0.05 94 1010.1
20260831205501 21 357 3.2 11.3 0.00 0.05 0.05 94 1010.2
20260831205000 21 90 4.8 17.7 0.00 0.05 0.05 94 1010.2
20260831204234 20 96 11.3 17.7 0.00 0.05 0.05 94 1010.3
20260831203735 20 87 9.7 17.7 0.00 0.05 0.05 94 1010.3
20260831203233 20 103 6.4 17.7 0.00 0.05 0.05 94 1010.4
20260831202732 20 117 8.0 17.7 0.00 0.05 0.05 94 1010.4
20260831202502 20 113 8.0 16.1 0.00 0.05 0.05 93 1010.5
20260831201732 21 75 8.0 17.7 0.00 0.05 0.05 93 1010.7
20260831201233 21 87 8.0 17.7 0.00 0.05 0.05 93 1010.8
20260831200733 21 103 6.4 17.7 0.00 0.05 0.05 93 1010.8
20260831200232 21 107 11.3 17.7 0.00 0.05 0.05 93 1010.8
20260831200006 21 55 6.4 19.3 0.00 0.05 0.05 93 1010.8
20260831195229 21 107 11.3 20.9 0.00 0.05 0.05 92 1010.8
20260831194955 21 114 11.3 20.9 0.00 0.05 0.05 92 1010.8
20260831194229 21 123 12.9 20.9 0.00 0.05 0.05 92 1010.8
20260831193729 21 95 14.5 20.9 0.00 0.05 0.05 92 1010.7
20260831193229 21 93 11.3 20.9 0.00 0.05 0.05 92 1010.8
20260831192729 21 87 12.9 19.3 0.00 0.05 0.05 91 1010.9
20260831192228 21 80 11.3 17.7 0.00 0.05 0.05 91 1010.7
20260831191728 21 86 12.9 17.7 0.00 0.05 0.05 89 1010.8
20260831191228 22 85 9.7 17.7 0.00 0.05 0.05 88 1010.8
20260831190728 22 87 11.3 19.3 0.00 0.05 0.05 88 1010.9
20260831190456 23 116 9.7 19.3 0.00 0.05 0.05 88 1011.0
20260831185728 23 55 8.0 19.3 0.00 0.05 0.05 88 1011.0
20260831185227 23 87 9.7 17.7 0.00 0.05 0.05 87 1011.1
20260831184728 23 51 6.4 16.1 0.00 0.05 0.05 88 1011.2
20260831184227 23 110 8.0 16.1 0.00 0.05 0.05 89 1011.3
20260831183727 22 48 4.8 14.5 0.00 0.05 0.05 90 1011.3
20260831183227 22 102 9.7 16.1 0.00 0.05 0.05 87 1011.5
20260831182954 23 100 3.2 16.1 0.00 0.05 0.05 85 1011.4
20260831182227 25 73 9.7 14.5 0.00 0.05 0.05 77 1011.4
20260831181727 26 68 6.4 14.5 0.00 0.05 0.05 77 1011.4
20260831181226 26 113 4.8 11.3 0.00 0.05 0.05 79 1011.3
20260831180727 26 178 3.2 11.3 0.00 0.05 0.05 79 1011.4
20260831180228 26 190 3.2 11.3 0.00 0.05 0.05 77 1011.3
20260831175726 27 282 1.6 14.5 0.00 0.05 0.05 79 1011.2
20260831175225 26 179 4.8 17.7 0.00 0.05 0.05 79 1011.4
20260831174726 26 202 8.0 17.7 0.00 0.05 0.05 79 1011.6
20260831174226 26 206 6.4 14.5 0.00 0.05 0.05 80 1011.7
20260831173725 26 168 4.8 14.5 0.00 0.05 0.05 80 1011.7
20260831173225 26 149 3.2 14.5 0.00 0.05 0.05 80 1011.9
20260831172728 26 199 3.2 14.5 0.00 0.05 0.05 81 1012.0
20260831172227 26 199 3.2 16.1 0.00 0.05 0.05 82 1012.2
20260831171725 25 195 6.4 16.1 0.00 0.05 0.05 82 1012.2
20260831171227 26 193 8.0 16.1 0.00 0.05 0.05 83 1012.3
20260831170954 25 224 3.2 11.3 0.00 0.05 0.05 84 1012.3
20260831170224 25 278 6.4 11.3 0.00 0.05 0.05 85 1012.3
20260831165722 25 267 6.4 9.7 0.00 0.05 0.05 87 1012.3
20260831165450 25 183 3.2 11.3 0.00 0.05 0.05 88 1012.3
20260831164725 24 234 6.4 11.3 0.00 0.05 0.05 89 1012.4
20260831164451 24 257 3.2 8.0 0.00 0.05 0.05 90 1012.5
20260831163948 23 168 3.2 9.7 0.00 0.05 0.05 92 1012.5
20260831163223 23 210 4.8 9.7 0.00 0.05 0.05 94 1012.5
20260831162724 22 210 1.6 8.0 0.00 0.05 0.05 95 1012.5
20260831162224 22 141 1.6 6.4 0.00 0.05 0.05 96 1012.6
20260831161723 22 169 0.0 8.0 0.00 0.05 0.05 96 1012.7
20260831161450 21 186 4.8 9.7 0.00 0.05 0.05 96 1012.8
20260831160723 21 192 4.8 9.7 0.00 0.05 0.05 96 1012.9
20260831160451 21 204 1.6 8.0 0.00 0.05 0.05 97 1012.9
20260831155951 21 157 1.6 8.0 0.00 0.05 0.05 97 1012.7
20260831155221 21 106 3.2 6.4 0.03 0.05 0.05 97 1012.9
20260831154722 21 154 1.6 6.4 0.03 0.05 0.05 97 1013.1
20260831154222 21 138 3.2 6.4 0.03 0.05 0.05 97 1013.1
20260831153722 20 135 1.6 6.4 0.03 0.05 0.05 97 1013.2
20260831153222 20 134 1.6 4.8 0.03 0.05 0.05 97 1013.3
20260831152221 20 62 1.6 8.0 0.03 0.05 0.05 97 1013.2
20260831151722 20 128 3.2 8.0 0.03 0.05 0.05 97 1013.2
20260831151221 20 123 1.6 8.0 0.03 0.05 0.05 98 1013.2
20260831150715 20 135 1.6 8.0 0.03 0.05 0.05 98 1013.2
20260831150220 20 181 0.0 9.7 0.05 0.05 0.05 98 1013.3
20260831145703 20 151 1.6 9.7 0.05 0.00 0.05 98 1013.4
20260831145203 20 214 3.2 6.4 0.03 0.00 0.03 98 1013.5
20260831144700 20 216 3.2 8.0 0.03 0.00 0.03 98 1013.4
20260831144424 20 190 3.2 8.0 0.03 0.00 0.03 98 1013.4
20260831143700 20 141 4.8 8.0 0.03 0.00 0.03 98 1013.2
20260831143158 20 182 3.2 6.4 0.03 0.00 0.03 98 1013.3
20260831142657 20 176 3.2 9.7 0.03 0.00 0.03 98 1013.4
20260831142150 20 220 4.8 9.7 0.03 0.00 0.03 98 1013.4
20260831141653 20 157 3.2 6.4 0.03 0.00 0.03 98 1013.5
20260831141146 20 236 3.2 9.7 0.03 0.00 0.03 98 1013.5
20260831140645 20 223 0.0 9.7 0.03 0.00 0.03 98 1013.5
20260831140412 20 166 3.2 8.0 0.00 0.00 0.00 98 1013.5
20260831135646 20 203 3.2 8.0 0.00 0.00 0.00 98 1013.6
20260831135146 20 209 1.6 4.8 0.00 0.00 0.00 98 1013.7
20260831134644 20 244 3.2 4.8 0.00 0.00 0.00 98 1013.7
20260831134144 20 247 3.2 4.8 0.00 0.00 0.00 98 1013.7
20260831133643 20 224 1.6 6.4 0.00 0.00 0.00 98 1013.6
20260831133142 20 220 1.6 6.4 0.00 0.00 0.00 98 1013.3
20260831132656 20 188 1.6 6.4 0.00 0.00 0.00 98 1013.2
20260831132254 20 185 0.0 6.4 0.00 0.03 0.00 98 1013.1
20260831131642 20 206 3.2 6.4 0.00 0.03 0.00 98 1013.1
20260831131140 19 189 0.0 6.4 0.00 0.03 0.00 98 1013.0
20260831130640 19 206 1.6 6.4 0.00 0.03 0.00 98 1013.1
20260831130141 19 193 1.6 8.0 0.00 0.03 0.00 98 1013.0
20260831125909 19 204 3.2 9.7 0.00 0.03 0.00 98 1013.0
20260831125141 19 202 3.2 9.7 0.00 0.03 0.00 98 1012.9
20260831124909 19 199 3.2 8.0 0.00 0.03 0.00 98 1012.9
20260831124136 19 183 1.6 6.4 0.00 0.03 0.00 98 1012.9
20260831123659 19 202 3.2 9.7 0.00 0.03 0.00 98 1012.8
20260831123136 19 182 3.2 9.7 0.00 0.03 0.00 98 1012.7
20260831122925 19 173 3.2 8.0 0.00 0.05 0.00 98 1012.6
20260831122136 19 202 4.8 11.3 0.00 0.05 0.00 98 1012.6
20260831121637 19 126 3.2 11.3 0.00 0.05 0.00 98 1012.4
20260831121134 19 117 4.8 9.7 0.00 0.05 0.00 98 1012.2
20260831120634 19 123 4.8 9.7 0.00 0.05 0.00 98 1012.3
20260831120137 19 123 3.2 9.7 0.00 0.05 0.00 98 1012.4
20260831115626 18 138 1.6 8.0 0.00 0.05 0.00 98 1012.5
20260831115126 18 189 4.8 8.0 0.00 0.05 0.00 98 1012.7
20260831114915 18 159 1.6 6.4 0.00 0.05 0.00 98 1012.5
20260831114359 18 140 1.6 8.0 0.00 0.05 0.00 98 1012.5
20260831113626 18 158 3.2 8.0 0.00 0.05 0.00 98 1012.5
20260831113126 18 138 3.2 8.0 0.00 0.05 0.00 98 1012.7
20260831112625 18 121 3.2 9.7 0.00 0.05 0.00 98 1012.6